Location: Colorado Springs
(38.8340°N, 104.8210°W)
Time: 20:39:46
(UTC-07:00)

Vanguard 3 - Pass Details

Date: 29 October 2017
Orbit: 509 x 3263 km, 33.3° (Epoch: 12 December)

Event Time Altitude Azimuth Distance (km) Brightness Sun altitude
Rises 05:48:10 0° 271° (W) 6,947 - -19.1°
Reaches altitude 10° 05:53:19 10° 269° (W) 5,654 - -18.1°
Exits shadow 05:57:38 20° 266° (W) 4,525 10.3 -17.2°
Maximum altitude 06:08:53 64° 194° (SSW) 2,107 9.1 -15.1°
Drops below altitude 10° 06:17:41 10° 115° (ESE) 3,350 11.5 -13.4°
Sets 06:19:58 0° 112° (ESE) 4,043 12.4 -12.9°
